KCIKMI Weather Reports


Display with metric or nautical units.
time (UTC)temp
F
wind
direction
speed
MPH
gust
MPH
rain 1hr
in
rain 24hr
in
rain mn
in
humidity
%
barometer
mb
20260505221018 65 204 2.0 10.0 0.00 0.00 0.00 66 1007.8
20260505220518 66 214 2.0 8.0 0.00 0.00 0.00 66 1007.9
20260505220020 66 204 3.0 6.0 0.00 0.00 0.00 65 1007.8
20260505215619 66 202 1.0 6.0 0.00 0.00 0.00 65 1007.7
20260505215018 66 195 1.0 6.0 0.00 0.00 0.00 65 1007.7
20260505214517 66 234 1.0 6.0 0.00 0.00 0.00 65 1007.7
20260505214016 66 221 1.0 6.0 0.00 0.00 0.00 65 1007.7
20260505213516 66 158 2.0 5.0 0.00 0.00 0.00 66 1007.7
20260505213016 66 201 1.0 4.0 0.00 0.00 0.00 67 1007.6
20260505212516 66 197 1.0 5.0 0.00 0.00 0.00 67 1007.6
20260505212017 66 175 1.0 5.0 0.00 0.00 0.00 66 1007.7
20260505211517 66 166 1.0 5.0 0.00 0.00 0.00 65 1007.6
20260505211015 67 195 1.0 5.0 0.00 0.00 0.00 63 1007.6
20260505210516 68 230 0.0 4.0 0.00 0.00 0.00 62 1007.5
20260505210023 69 184 1.0 4.0 0.00 0.00 0.00 61 1007.6
20260505205515 70 225 0.0 4.0 0.00 0.00 0.00 60 1007.2
20260505205014 71 201 0.0 6.0 0.00 0.00 0.00 60 1007.2
20260505204514 71 171 1.0 7.0 0.00 0.00 0.00 58 1007.1
20260505204013 72 204 2.0 7.0 0.00 0.00 0.00 58 1007.3
20260505203512 72 228 2.0 7.0 0.00 0.00 0.00 58 1007.5
20260505203012 72 209 1.0 6.0 0.00 0.00 0.00 59 1007.4
20260505202512 71 231 1.0 8.0 0.00 0.00 0.00 59 1007.5
20260505202014 71 206 1.0 8.0 0.00 0.00 0.00 59 1007.5
20260505201512 71 206 1.0 8.0 0.00 0.00 0.00 59 1007.5
20260505201011 72 202 0.0 5.0 0.00 0.00 0.00 59 1007.6
20260505200514 72 327 1.0 6.0 0.00 0.00 0.00 59 1007.5
20260505200022 72 202 2.0 6.0 0.00 0.00 0.00 58 1007.5
20260505195514 72 223 1.0 6.0 0.00 0.00 0.00 58 1007.3
20260505195009 73 207 2.0 6.0 0.00 0.00 0.00 57 1007.4
20260505194509 73 171 1.0 6.0 0.00 0.00 0.00 56 1007.5
20260505194007 73 207 1.0 4.0 0.00 0.00 0.00 56 1007.6
20260505193507 74 192 0.0 4.0 0.00 0.00 0.00 56 1007.7
20260505193005 74 211 1.0 4.0 0.00 0.00 0.00 56 1007.7
20260505192505 73 189 0.0 5.0 0.00 0.00 0.00 58 1007.7
20260505192005 73 209 0.0 5.0 0.00 0.00 0.00 57 1007.7
20260505191504 73 198 1.0 4.0 0.00 0.00 0.00 58 1007.8
20260505191009 73 202 0.0 4.0 0.00 0.00 0.00 58 1007.8
20260505190504 72 209 1.0 5.0 0.00 0.00 0.00 58 1007.9
20260505190004 73 216 0.0 5.0 0.00 0.00 0.00 58 1007.8
20260505185503 73 157 1.0 4.0 0.00 0.00 0.00 58 1007.8
20260505185002 73 217 1.0 4.0 0.00 0.00 0.00 58 1007.8
20260505184502 73 191 1.0 3.0 0.00 0.00 0.00 58 1007.8
20260505184001 73 207 1.0 5.0 0.00 0.00 0.00 58 1007.8
20260505183603 73 204 1.0 5.0 0.00 0.00 0.00 58 1007.8
20260505183100 73 223 1.0 4.0 0.00 0.00 0.00 60 1008.0
20260505182600 72 189 0.0 4.0 0.00 0.00 0.00 60 1008.0
20260505182100 72 254 1.0 4.0 0.00 0.00 0.00 61 1008.0
20260505181601 73 216 0.0 4.0 0.00 0.00 0.00 60 1008.0
20260505181059 73 202 1.0 4.0 0.00 0.00 0.00 59 1008.1
20260505180558 73 228 0.0 4.0 0.00 0.00 0.00 58 1008.0
20260505180059 74 230 0.0 4.0 0.00 0.00 0.00 57 1008.0
20260505175559 74 183 0.0 5.0 0.00 0.00 0.00 56 1008.1
20260505175057 75 206 1.0 5.0 0.00 0.00 0.00 56 1008.1
20260505174603 74 158 1.0 6.0 0.00 0.00 0.00 56 1008.2
20260505174057 74 188 1.0 6.0 0.00 0.00 0.00 55 1008.2
20260505173555 74 192 1.0 6.0 0.00 0.00 0.00 56 1008.3
20260505173056 74 219 1.0 5.0 0.00 0.00 0.00 56 1008.4
20260505172555 74 140 1.0 5.0 0.00 0.00 0.00 56 1008.4
20260505172054 75 222 1.0 7.0 0.00 0.00 0.00 54 1008.4
20260505171554 75 221 1.0 7.0 0.00 0.00 0.00 56 1008.4
20260505171053 75 228 0.0 5.0 0.00 0.00 0.00 55 1008.4
20260505170552 75 198 2.0 5.0 0.00 0.00 0.00 54 1008.4
20260505170052 75 209 0.0 4.0 0.00 0.00 0.00 57 1008.4
20260505165549 75 233 0.0 4.0 0.00 0.00 0.00 58 1008.5
20260505165047 74 173 1.0 4.0 0.00 0.00 0.00 59 1008.6
20260505164610 73 208 0.0 4.0 0.00 0.00 0.00 61 1008.7
20260505164047 72 249 0.0 4.0 0.00 0.00 0.00 60 1008.8
20260505163542 72 207 0.0 4.0 0.00 0.00 0.00 62 1008.9
20260505163050 71 204 1.0 4.0 0.00 0.00 0.00 61 1008.9
20260505162539 70 205 0.0 3.0 0.00 0.00 0.00 64 1008.9
20260505162038 69 220 0.0 3.0 0.00 0.00 0.00 64 1009.0
20260505161537 69 219 0.0 5.0 0.00 0.00 0.00 68 1009.1
20260505161036 68 209 0.0 5.0 0.00 0.00 0.00 67 1009.1
20260505160534 67 194 1.0 4.0 0.00 0.00 0.00 67 1009.2
20260505153030 65 200 2.0 4.0 0.00 0.00 0.00 69 1009.2
20260505152531 65 196 1.0 4.0 0.00 0.00 0.00 69 1009.2
20260505152030 65 195 2.0 5.0 0.00 0.00 0.00 69 1009.2
20260505151529 65 175 1.0 5.0 0.00 0.00 0.00 69 1009.2
20260505151030 66 162 1.0 5.0 0.00 0.00 0.00 68 1009.1
20260505150529 66 224 0.0 3.0 0.00 0.00 0.00 68 1009.2
20260505140522 66 218 0.0 3.0 0.00 0.00 0.00 69 1009.6
20260505125009 61 220 1.0 5.0 0.00 0.00 0.00 76 1009.9
20260505124509 61 193 1.0 4.0 0.00 0.00 0.00 77 1010.0
20260505124006 60 194 1.0 5.0 0.00 0.00 0.00 77 1009.9
20260505123505 60 201 1.0 5.0 0.00 0.00 0.00 78 1009.9
20260505123003 59 199 0.0 4.0 0.00 0.00 0.00 79 1009.7
20260505122502 59 211 1.0 4.0 0.00 0.00 0.00 79 1009.6
20260505122002 59 174 1.0 3.0 0.00 0.00 0.00 80 1009.7
20260505121600 58 192 1.0 5.0 0.00 0.00 0.00 80 1009.8
20260505121103 58 195 1.0 5.0 0.00 0.00 0.00 81 1009.7
20260505120559 58 190 1.0 4.0 0.00 0.00 0.00 81 1009.7
20260505120116 57 192 1.0 4.0 0.00 0.00 0.00 82 1009.7
20260505115555 57 187 1.0 4.0 0.00 0.00 0.00 82 1009.6
20260505115058 57 196 2.0 7.0 0.00 0.00 0.00 82 1009.7
20260505114553 56 186 1.0 7.0 0.00 0.00 0.00 83 1009.7
20260505114052 56 190 0.0 4.0 0.00 0.00 0.00 84 1009.7
20260505113550 55 195 0.0 4.0 0.00 0.00 0.00 84 1009.6
20260505113054 55 179 0.0 4.0 0.00 0.00 0.00 84 1009.7
20260505112552 55 183 1.0 4.0 0.00 0.00 0.00 85 1009.7
20260505112048 54 185 0.0 3.0 0.00 0.00 0.00 85 1009.7
20260505111547 54 199 0.0 4.0 0.00 0.00 0.00 86 1009.7
20260505111047 54 198 0.0 4.0 0.00 0.00 0.00 86 1009.7
20260505110545 53 217 0.0 2.0 0.00 0.00 0.00 87 1009.6
20260505102039 51 209 0.0 0.0 0.00 0.00 0.00 91 1009.4
20260505101539 51 209 0.0 0.0 0.00 0.00 0.00 91 1009.3
20260505101039 50 209 0.0 0.0 0.00 0.00 0.00 91 1009.3
20260505100538 50 207 0.0 0.0 0.00 0.00 0.00 91 1009.2
20260505100038 50 202 0.0 0.0 0.00 0.00 0.00 91 1009.3
20260505095537 50 202 0.0 0.0 0.00 0.00 0.00 91 1009.2
20260505095037 50 202 0.0 0.0 0.00 0.00 0.00 91 1009.1
20260505094540 50 202 0.0 0.0 0.00 0.00 0.00 90 1009.2
20260505094036 50 202 0.0 0.0 0.00 0.00 0.00 90 1009.2
20260505093535 51 202 0.0 0.0 0.00 0.00 0.00 90 1009.4
20260505093035 51 202 0.0 0.0 0.00 0.00 0.00 90 1009.4
20260505092534 51 202 0.0 0.0 0.00 0.00 0.00 89 1009.4
20260505092034 51 201 0.0 0.0 0.00 0.00 0.00 89 1009.3
20260505091534 51 201 0.0 0.0 0.00 0.00 0.00 89 1009.3
20260505091036 51 218 0.0 0.0 0.00 0.00 0.00 89 1009.4
20260505090533 51 192 0.0 0.0 0.00 0.00 0.00 89 1009.4
20260505090037 51 192 0.0 0.0 0.00 0.00 0.00 89 1009.4
20260505085534 52 197 0.0 0.0 0.00 0.00 0.00 89 1009.5
20260505085033 52 203 0.0 0.0 0.00 0.00 0.00 89 1009.6
20260505084531 52 204 0.0 0.0 0.00 0.00 0.00 89 1009.5
20260505084031 52 176 0.0 0.0 0.00 0.00 0.00 89 1009.5
20260505083531 52 196 0.0 1.0 0.00 0.00 0.00 89 1009.5
20260505083030 52 186 0.0 1.0 0.00 0.00 0.00 89 1009.6
20260505082530 52 185 0.0 1.0 0.00 0.00 0.00 89 1009.5
20260505082030 51 181 0.0 0.0 0.00 0.00 0.00 89 1009.5
20260505081541 51 203 0.0 0.0 0.00 0.00 0.00 89 1009.5
20260505081030 51 197 0.0 0.0 0.00 0.00 0.00 89 1009.6
20260505080530 51 204 0.0 0.0 0.00 0.00 0.00 89 1009.6
20260505080033 51 207 0.0 0.0 0.00 0.00 0.00 89 1009.6
20260505075528 51 195 0.0 0.0 0.00 0.00 0.00 88 1009.6
20260505075031 51 195 0.0 0.0 0.00 0.00 0.00 87 1009.6
20260505074527 51 195 0.0 0.0 0.00 0.00 0.00 87 1009.7
20260505074027 51 195 0.0 0.0 0.00 0.00 0.00 87 1009.6
20260505073531 51 195 0.0 2.0 0.00 0.00 0.00 87 1009.5
20260505073038 52 195 0.0 2.0 0.00 0.00 0.00 87 1009.5
20260505072526 51 190 0.0 2.0 0.00 0.00 0.00 88 1009.6
20260505072027 51 204 0.0 0.0 0.00 0.00 0.00 88 1009.6
20260505071543 51 204 0.0 0.0 0.00 0.00 0.00 88 1009.6
20260505071025 51 204 0.0 0.0 0.00 0.00 0.00 87 1009.6
20260505070526 51 204 0.0 0.0 0.00 0.00 0.00 87 1009.7
20260505070024 51 199 0.0 0.0 0.00 0.00 0.00 87 1009.7
20260505065527 51 199 0.0 0.0 0.00 0.00 0.00 87 1009.7
20260505065026 51 199 0.0 0.0 0.00 0.00 0.00 87 1009.7
20260505064525 51 202 0.0 0.0 0.00 0.00 0.00 87 1009.7
20260505064026 51 202 0.0 0.0 0.00 0.00 0.00 87 1009.8
20260505063522 51 199 0.0 0.0 0.00 0.00 0.00 86 1009.8
20260505063022 51 200 0.0 0.0 0.00 0.00 0.00 86 1009.8
20260505062520 51 200 0.0 0.0 0.00 0.00 0.00 85 1009.8
20260505062020 52 199 0.0 0.0 0.00 0.00 0.00 85 1009.8
20260505061520 52 199 0.0 0.0 0.00 0.00 0.00 85 1009.8
20260505061022 52 199 0.0 2.0 0.00 0.00 0.00 85 1009.8
20260505060523 52 199 0.0 2.0 0.00 0.00 0.00 85 1009.8
20260505060019 52 192 0.0 1.0 0.00 0.00 0.00 85 1009.9
20260505055518 52 178 0.0 2.0 0.00 0.00 0.00 85 1009.9
20260505055018 52 190 0.0 2.0 0.00 0.00 0.00 86 1009.9
20260505054517 51 191 0.0 0.0 0.00 0.00 0.00 86 1010.0
20260505054017 51 203 0.0 0.0 0.00 0.00 0.00 86 1009.9
20260505053515 51 202 0.0 0.0 0.00 0.00 0.00 86 1010.0
20260505053023 51 197 0.0 0.0 0.00 0.00 0.00 86 1010.0
20260505052518 51 196 0.0 0.0 0.00 0.00 0.00 86 1010.0
20260505052015 51 204 0.0 0.0 0.00 0.00 0.00 86 1010.0
20260505051527 51 202 0.0 0.0 0.00 0.00 0.00 86 1009.9
20260505051016 51 202 0.0 0.0 0.00 0.00 0.00 85 1009.9
20260505050516 51 203 0.0 0.0 0.00 0.00 0.00 85 1009.9
20260505041513 52 197 0.0 0.0 0.00 0.00 0.00 83 1010.2
20260505041005 52 197 0.0 1.0 0.00 0.00 0.00 83 1010.2
20260505040504 52 194 0.0 1.0 0.00 0.00 0.00 83 1010.2
20260505040006 52 195 0.0 3.0 0.00 0.00 0.00 82 1010.3
20260505035502 52 192 1.0 3.0 0.00 0.00 0.00 82 1010.2
20260505035002 52 218 0.0 3.0 0.00 0.00 0.00 82 1010.2
20260505034502 53 194 0.0 3.0 0.00 0.00 0.00 82 1010.2
20260505034002 53 192 0.0 3.0 0.00 0.00 0.00 82 1010.2
20260505033502 53 181 0.0 2.0 0.00 0.00 0.00 82 1010.2
20260505033002 53 202 0.0 0.0 0.00 0.00 0.00 82 1010.1
20260505032501 53 209 0.0 0.0 0.00 0.00 0.00 81 1010.1
20260505032004 53 202 0.0 0.0 0.00 0.00 0.00 81 1010.1
20260505031501 53 196 0.0 1.0 0.00 0.00 0.00 80 1010.1
20260505031000 53 196 0.0 1.0 0.00 0.00 0.00 80 1010.2
20260505030600 53 187 0.0 1.0 0.00 0.00 0.00 80 1010.2
20260505030105 53 187 0.0 1.0 0.00 0.00 0.00 79 1010.2
20260505025600 53 193 0.0 2.0 0.00 0.00 0.00 79 1010.2
20260505025100 53 193 0.0 3.0 0.00 0.00 0.00 79 1010.2
20260505024601 54 192 0.0 4.0 0.00 0.00 0.00 79 1010.2
20260505024102 53 197 1.0 4.0 0.00 0.00 0.00 79 1010.2
20260505023559 54 216 0.0 0.0 0.00 0.00 0.00 78 1010.2
20260505023108 54 202 0.0 0.0 0.00 0.00 0.00 78 1010.2
20260505022559 54 229 0.0 0.0 0.00 0.00 0.00 78 1010.3
20260505022059 54 198 0.0 0.0 0.00 0.00 0.00 77 1010.3
20260505021601 54 202 0.0 1.0 0.00 0.00 0.00 77 1010.3
20260505021057 54 202 0.0 2.0 0.00 0.00 0.00 76 1010.4
20260505020558 54 204 0.0 3.0 0.00 0.00 0.00 76 1010.3
20260505015558 54 208 0.0 3.0 0.00 0.00 0.00 76 1010.4
20260505015157 54 199 0.0 3.0 0.00 0.00 0.00 76 1010.4
20260505014556 55 203 0.0 3.0 0.00 0.00 0.00 76 1010.3
20260505014055 55 197 0.0 0.0 0.00 0.00 0.00 75 1010.3
20260505013556 55 194 0.0 1.0 0.00 0.00 0.00 75 1010.3
20260505013056 55 176 0.0 1.0 0.00 0.00 0.00 75 1010.2
20260505012556 55 200 0.0 1.0 0.00 0.00 0.00 74 1010.2
20260505012058 55 197 0.0 2.0 0.00 0.00 0.00 74 1010.1
20260505011556 55 214 0.0 2.0 0.00 0.00 0.00 73 1010.0
20260505011057 56 192 0.0 2.0 0.00 0.00 0.00 73 1009.9
20260505010555 56 182 0.0 3.0 0.00 0.00 0.00 72 1009.9
20260505005554 56 213 0.0 3.0 0.00 0.00 0.00 71 1009.6
20260505005054 57 202 1.0 4.0 0.00 0.00 0.00 70 1009.4
20260505004554 57 185 1.0 4.0 0.00 0.00 0.00 70 1009.3
20260505004053 57 196 0.0 2.0 0.00 0.00 0.00 69 1009.2
20260505003557 57 202 0.0 3.0 0.00 0.00 0.00 69 1009.2
20260505003057 57 219 1.0 5.0 0.00 0.00 0.00 68 1009.1
20260505002555 57 185 1.0 5.0 0.00 0.00 0.00 68 1009.0
20260505002052 57 199 1.0 4.0 0.00 0.00 0.00 67 1008.9
20260505001553 58 204 1.0 3.0 0.00 0.00 0.00 67 1008.8
20260505001053 58 217 0.0 4.0 0.00 0.00 0.00 66 1008.8
20260505000552 58 184 0.0 8.0 0.00 0.00 0.00 65 1008.6
20260505000100 58 190 2.0 8.0 0.00 0.00 0.00 64 1008.6
20260504235551 59 189 0.0 4.0 0.00 0.00 0.00 63 1008.5
20260504235052 59 185 1.0 6.0 0.00 0.00 0.00 62 1008.3
20260504234551 59 228 1.0 6.0 0.00 0.00 0.00 60 1008.3
20260504234052 60 180 1.0 6.0 0.00 0.00 0.00 60 1008.3
20260504233550 60 209 1.0 6.0 0.00 0.00 0.00 59 1008.2
20260504233053 60 178 2.0 5.0 0.00 0.00 0.00 58 1008.2
20260504232550 61 177 1.0 7.0 0.00 0.00 0.00 56 1008.2
20260504232052 61 212 2.0 7.0 0.00 0.00 0.00 55 1008.1
20260504231549 61 199 2.0 7.0 0.00 0.00 0.00 55 1008.0
20260504231049 62 195 2.0 7.0 0.00 0.00 0.00 55 1008.0
20260504230551 62 177 1.0 10.0 0.00 0.00 0.00 55 1007.7
20260504230049 62 185 2.0 10.0 0.00 0.00 0.00 54 1007.7
20260504225548 63 214 2.0 7.0 0.00 0.00 0.00 53 1007.7
20260504225050 63 210 1.0 6.0 0.00 0.00 0.00 52 1007.7
20260504224549 63 180 3.0 6.0 0.00 0.00 0.00 51 1007.6
20260504224050 63 199 2.0 7.0 0.00 0.00 0.00 51 1007.6
20260504223548 64 181 2.0 10.0 0.00 0.00 0.00 51 1007.6
20260504223047 64 186 3.0 10.0 0.00 0.00 0.00 49 1007.6
20260504222547 65 181 3.0 7.0 0.00 0.00 0.00 48 1007.5
20260504222046 65 186 3.0 8.0 0.00 0.00 0.00 46 1007.4
20260504221546 65 169 3.0 9.0 0.00 0.00 0.00 47 1007.3